St Catherine Internationa, Egypt

2:53 PM EET on May 23, 2017 (GMT +0200)
St Catherine Internationa

Weather History for HESC - February, 2014

Change the Weather History Date:

Friday, February 14, 2014

  Actual Average Record
Temperature  
Mean Temperature 54 °F -  
Max Temperature 64 °F - - ()
Min Temperature 44 °F - - ()
Degree Days  
Heating Degree Days 11    
Growing Degree Days 4 (Base 50)    
Moisture  
Dew Point 28 °F    
Average Humidity 39    
Maximum Humidity 66    
Minimum Humidity 20    
Precipitation  
Precipitation 0.00 in - - ()
Sea Level Pressure  
Sea Level Pressure 30.07 in    
Wind  
Wind Speed 10 mph ()    
Max Wind Speed 29 mph    
Max Gust Speed -    
T = Trace of Precipitation, MM = Missing Value Source: Averaged Metar Reports

Daily Weather History Graph

Daily Weather History Graph

Search for Another Location

Airport or City:

Trip Planner

Search our weather history database for the weather conditions in past years. The results will help you decide how hot, cold, wet, or windy it might be!

Date:

Astronomy

Feb. 14, 2014 Rise Set
Actual Time 6:23 AM EET 5:33 PM EET
Civil Twilight 5:59 AM EET 5:57 PM EET
Nautical Twilight 5:31 AM EET 6:25 PM EET
Astronomical Twilight 5:03 AM EET 6:52 PM EET
Moon 5:14 PM EET (2/14) 5:40 AM EET (2/14)
Length of Visible Light 11h 58m
Length of Day
11h 09m
Full, 100% of the Moon is Illuminated
Feb 14
Full
Feb 15
Full
Feb 22
Last Quarter
Mar 1
New
Mar 8
First Quarter

Hourly Weather History & Observations

Time (EET) Temp. Windchill Dew Point Humidity Pressure Visibility Wind Dir Wind Speed Gust Speed Precip Events Conditions
12:00 AM 50.0 °F - 19.4 °F 30% 30.15 in - Calm Calm - N/A   Clear
1:00 AM 50.0 °F - 24.8 °F 37% 30.15 in - Calm Calm - N/A   Clear
2:00 AM 48.2 °F - 26.6 °F 43% 30.12 in - South 6.9 mph - N/A   Clear
3:00 AM 50.0 °F - 24.8 °F 37% 30.09 in - South 9.2 mph - N/A   Clear
4:00 AM 50.0 °F - 26.6 °F 40% 30.09 in - South 10.4 mph - N/A   Clear
5:00 AM 50.0 °F - 24.8 °F 37% 30.06 in - SSW 8.1 mph - N/A   Clear
6:00 AM 50.0 °F - 24.8 °F 37% 30.06 in - SW 5.8 mph - N/A   Clear
7:00 AM 51.8 °F - 28.4 °F 41% 30.06 in - South 9.2 mph - N/A   Clear
8:00 AM 55.4 °F - 30.2 °F 38% 30.06 in - Calm Calm - N/A   Clear
9:00 AM 59.0 °F - 33.8 °F 39% 30.06 in - Calm Calm - N/A   Clear
10:00 AM 55.4 °F - 32.0 °F 41% 30.06 in - WNW 20.7 mph - N/A   Clear
11:00 AM 62.6 °F - 28.4 °F 27% 30.06 in - SW 23.0 mph - N/A   Clear
12:00 PM 64.4 °F - 28.4 °F 26% 30.04 in - WSW 23.0 mph - N/A   Clear
1:00 PM 64.4 °F - 30.2 °F 28% 30.04 in - WSW 20.7 mph - N/A   Clear
3:00 PM 64.4 °F - 26.6 °F 24% 30.04 in - West 28.8 mph - N/A   Clear
4:00 PM 59.0 °F - 17.6 °F 20% 30.01 in - West 23.0 mph - N/A   Clear
5:00 PM 57.2 °F - 23.0 °F 27% 30.04 in - West 24.2 mph - N/A   Clear
6:00 PM 51.8 °F - 32.0 °F 47% 30.04 in - WNW 21.9 mph - N/A   Clear
7:00 PM 48.2 °F - 23.0 °F 37% 30.04 in - WNW 23.0 mph - N/A   Clear
8:00 PM 46.4 °F 38.7 °F 33.8 °F 62% 30.06 in - West 20.7 mph - N/A   Clear
9:00 PM 46.4 °F 39.2 °F 35.6 °F 66% 30.06 in - West 18.4 mph - N/A   Clear
10:00 PM 44.6 °F 36.9 °F 30.2 °F 57% 30.09 in - West 18.4 mph - N/A   Clear
11:00 PM 44.6 °F 36.9 °F 30.2 °F 57% 30.06 in - West 18.4 mph - N/A   Clear